Ravenna, OH

3:33 PM EDT on June 25, 2017 (GMT -0400)
Ravenna

Weather History for KPOV - November, 2013

Change the Weather History Date:

Monday, November 11, 2013

  Actual Average (KCAK) Record (KCAK)
Temperature  
Mean Temperature 38 °F -  
Max Temperature 45 °F 47 °F 72 °F (1915)
Min Temperature 30 °F 35 °F 18 °F (1957)
Degree Days  
Heating Degree Days 28    
Moisture  
Dew Point 31 °F    
Average Humidity 77    
Maximum Humidity 100    
Minimum Humidity 49    
Precipitation  
Precipitation 0.08 in - - ()
Sea Level Pressure  
Sea Level Pressure 30.13 in    
Wind  
Wind Speed 5 mph (WSW)    
Max Wind Speed 13 mph    
Max Gust Speed 21 mph    
Visibility 9 miles    
Events Rain , Snow    
Averages and records for this station are not official NWS values.
T = Trace of Precipitation, MM = Missing Value Source: NWS Daily Summary

Daily Weather History Graph

Daily Weather History Graph

Search for Another Location

Airport or City:

Trip Planner

Search our weather history database for the weather conditions in past years. The results will help you decide how hot, cold, wet, or windy it might be!

Date:

Astronomy

Nov. 11, 2013 Rise Set
Actual Time 7:08 AM EST 5:09 PM EST
Civil Twilight 6:39 AM EST 5:38 PM EST
Nautical Twilight 6:05 AM EST 6:11 PM EST
Astronomical Twilight 5:33 AM EST 6:44 PM EST
Moon 1:52 PM EST (11/11) 12:48 AM EST (11/11)
Length of Visible Light 10h 59m
Length of Day
10h 00m
Waxing Gibbous, 66% of the Moon is Illuminated
Nov 11
Waxing Gibbous
Nov 17
Full
Nov 25
Last Quarter
Dec 2
New
Dec 9
First Quarter

Hourly Weather History & Observations

Time (EST) Temp. Windchill Dew Point Humidity Pressure Visibility Wind Dir Wind Speed Gust Speed Precip Events Conditions
12:18 AM 33.1 °F 30.0 °F 28.8 °F 84% 30.25 in 10.0 mi WSW 3.5 mph - N/A   Clear
12:37 AM 32.4 °F 29.1 °F 28.6 °F 86% 30.25 in 10.0 mi WSW 3.5 mph - N/A   Clear
12:57 AM 32.9 °F 29.8 °F 28.8 °F 85% 30.25 in 10.0 mi WSW 3.5 mph - N/A   Clear
1:17 AM 32.0 °F - 27.7 °F 84% 30.24 in 10.0 mi Calm Calm - N/A   Clear
1:37 AM 31.8 °F - 28.6 °F 88% 30.24 in 10.0 mi Calm Calm - N/A   Clear
1:58 AM 30.9 °F 26.2 °F 30.7 °F 99% 30.23 in 10.0 mi SW 4.6 mph - N/A   Clear
2:17 AM 32.0 °F 27.5 °F 30.0 °F 92% 30.23 in 10.0 mi SW 4.6 mph - N/A   Clear
2:37 AM 32.5 °F 29.3 °F 28.9 °F 87% 30.24 in 10.0 mi WSW 3.5 mph - N/A   Clear
2:58 AM 32.0 °F 28.7 °F 28.4 °F 87% 30.23 in 10.0 mi SW 3.5 mph - N/A   Clear
3:17 AM 32.2 °F 27.7 °F 28.9 °F 88% 30.24 in 10.0 mi West 4.6 mph - N/A   Scattered Clouds
3:37 AM 32.9 °F 27.5 °F 29.7 °F 88% 30.22 in 10.0 mi SW 5.8 mph - N/A   Mostly Cloudy
3:58 AM 33.3 °F - 29.3 °F 85% 30.23 in 10.0 mi Calm Calm - N/A   Overcast
4:17 AM 33.4 °F - 29.3 °F 85% 30.23 in 10.0 mi Calm Calm - N/A   Overcast
4:37 AM 32.9 °F - 29.3 °F 87% 30.22 in 10.0 mi Calm Calm - N/A   Overcast
4:58 AM 32.9 °F - 29.7 °F 88% 30.21 in 10.0 mi Calm Calm - N/A   Overcast
5:17 AM 33.3 °F - 29.8 °F 87% 30.21 in 10.0 mi Calm Calm - N/A   Overcast
5:37 AM 33.8 °F 30.8 °F 30.0 °F 86% 30.21 in 10.0 mi SSW 3.5 mph - N/A   Overcast
5:57 AM 34.2 °F 31.2 °F 30.0 °F 85% 30.20 in 10.0 mi SW 3.5 mph - N/A   Overcast
6:17 AM 34.9 °F 32.0 °F 30.2 °F 83% 30.20 in 10.0 mi WSW 3.5 mph - N/A   Overcast
6:37 AM 34.9 °F - 30.2 °F 83% 30.19 in 10.0 mi Calm Calm - N/A   Overcast
6:58 AM 35.6 °F 31.7 °F 30.2 °F 81% 30.19 in 10.0 mi SW 4.6 mph - N/A   Overcast
7:17 AM 36.0 °F 31.1 °F 30.2 °F 80% 30.19 in 10.0 mi SSW 5.8 mph - N/A   Overcast
7:37 AM 35.6 °F 31.7 °F 30.0 °F 80% 30.19 in 10.0 mi South 4.6 mph - N/A   Overcast
7:57 AM 35.6 °F 32.8 °F 30.2 °F 81% 30.18 in 10.0 mi SSW 3.5 mph - N/A   Overcast
8:17 AM 36.5 °F 32.7 °F 30.2 °F 78% 30.17 in 10.0 mi South 4.6 mph - N/A   Overcast
8:37 AM 37.8 °F 33.3 °F 30.2 °F 74% 30.17 in 10.0 mi SSW 5.8 mph - N/A   Overcast
8:57 AM 38.8 °F 33.8 °F 30.2 °F 71% 30.17 in 10.0 mi SW 6.9 mph - N/A   Overcast
9:18 AM 39.4 °F 33.2 °F 29.8 °F 69% 30.16 in 10.0 mi SW 9.2 mph - N/A   Overcast
9:37 AM 39.7 °F 34.9 °F 29.8 °F 68% 30.16 in 10.0 mi SW 6.9 mph 16.1 mph N/A   Overcast
9:57 AM 39.7 °F 34.3 °F 29.8 °F 68% 30.15 in 10.0 mi SW 8.1 mph 17.3 mph N/A   Overcast
10:17 AM 40.1 °F 32.7 °F 30.0 °F 67% 30.14 in 10.0 mi SW 12.7 mph 18.4 mph N/A   Overcast
10:37 AM 40.6 °F 35.4 °F 30.0 °F 66% 30.13 in 10.0 mi SSW 8.1 mph - N/A   Overcast
10:58 AM 41.5 °F 36.4 °F 29.5 °F 62% 30.11 in 10.0 mi SW 8.1 mph 17.3 mph N/A   Overcast
11:17 AM 42.8 °F 37.5 °F 29.1 °F 58% 30.10 in 10.0 mi SW 9.2 mph 20.7 mph N/A   Overcast
11:37 AM 43.2 °F 37.4 °F 28.9 °F 57% 30.09 in 10.0 mi SW 10.4 mph 18.4 mph N/A   Overcast
11:58 AM 43.7 °F 38.1 °F 28.6 °F 55% 30.08 in 10.0 mi SW 10.4 mph 16.1 mph N/A   Overcast
12:17 PM 43.9 °F 37.9 °F 28.4 °F 55% 30.08 in 10.0 mi SW 11.5 mph - N/A   Overcast
12:37 PM 44.1 °F 40.8 °F 28.4 °F 54% 30.08 in 10.0 mi SW 5.8 mph 19.6 mph N/A   Overcast
12:58 PM 44.1 °F 39.5 °F 28.4 °F 54% 30.06 in 10.0 mi SW 8.1 mph 16.1 mph N/A   Overcast
1:17 PM 44.1 °F 38.1 °F 28.6 °F 55% 30.06 in 10.0 mi WSW 11.5 mph 18.4 mph N/A   Overcast
1:37 PM 44.6 °F 40.7 °F 28.9 °F 54% 30.05 in 10.0 mi SW 6.9 mph - N/A   Overcast
1:57 PM 44.6 °F 41.4 °F 28.9 °F 54% 30.04 in 10.0 mi WSW 5.8 mph - N/A   Overcast
2:17 PM 45.1 °F 40.8 °F 28.2 °F 52% 30.04 in 10.0 mi WSW 8.1 mph 16.1 mph N/A   Overcast
2:37 PM 45.5 °F 40.3 °F 27.7 °F 50% 30.03 in 10.0 mi SW 10.4 mph - N/A   Overcast
2:57 PM 45.5 °F 41.3 °F 27.5 °F 49% 30.02 in 10.0 mi SW 8.1 mph - N/A   Overcast
3:17 PM 45.5 °F 41.3 °F 27.9 °F 50% 30.02 in 10.0 mi WSW 8.1 mph - N/A   Overcast
3:37 PM 45.5 °F 41.3 °F 28.0 °F 51% 30.02 in 10.0 mi WSW 8.1 mph - N/A   Overcast
3:57 PM 45.5 °F 41.3 °F 27.7 °F 50% 30.02 in 10.0 mi WSW 8.1 mph - N/A   Overcast
4:17 PM 45.5 °F 41.8 °F 28.0 °F 51% 30.02 in 10.0 mi WSW 6.9 mph 16.1 mph N/A Rain Light Rain
4:37 PM 45.3 °F 41.6 °F 28.2 °F 51% 30.02 in 10.0 mi WSW 6.9 mph - N/A   Overcast
4:57 PM 45.1 °F 42.0 °F 28.6 °F 52% 30.01 in 10.0 mi WSW 5.8 mph - N/A Rain Light Rain
5:17 PM 45.0 °F 41.8 °F 28.6 °F 53% 30.01 in 10.0 mi WSW 5.8 mph - N/A   Overcast
5:37 PM 44.6 °F 40.2 °F 29.5 °F 55% 30.03 in 10.0 mi WNW 8.1 mph - N/A Rain Rain
5:58 PM 42.1 °F 37.7 °F 34.3 °F 74% 30.04 in 10.0 mi NW 6.9 mph - N/A   Drizzle
6:17 PM 40.5 °F 35.1 °F 36.3 °F 85% 30.05 in 10.0 mi WNW 8.1 mph - N/A   Drizzle
6:37 PM 40.3 °F 34.4 °F 38.7 °F 94% 30.05 in 7.0 mi WNW 9.2 mph - N/A Rain Light Rain
6:58 PM 40.1 °F 33.6 °F 39.4 °F 97% 30.05 in 7.0 mi West 10.4 mph - 0.02 in Rain Light Rain
7:17 PM 39.6 °F 34.0 °F 39.6 °F 100% 30.05 in 7.0 mi WNW 8.1 mph - 0.01 in Rain Light Rain
7:37 PM 39.0 °F 33.4 °F 39.2 °F 100% 30.06 in 10.0 mi WNW 8.1 mph - 0.02 in Rain Rain
7:58 PM 36.9 °F 30.1 °F 36.7 °F 99% 30.07 in 10.0 mi NNW 9.2 mph 18.4 mph 0.03 in Rain Light Rain
8:17 PM 35.6 °F 29.2 °F 35.8 °F 100% 30.08 in 10.0 mi North 8.1 mph 17.3 mph N/A Rain Light Rain
8:37 PM 34.3 °F 27.0 °F 34.5 °F 100% 30.09 in 7.0 mi North 9.2 mph - 0.02 in Rain Rain
8:58 PM 33.3 °F 27.1 °F 33.3 °F 100% 30.10 in 3.0 mi North 6.9 mph - 0.03 in   Overcast
9:17 PM 32.9 °F 25.9 °F 32.9 °F 100% 30.11 in 1.8 mi NNW 8.1 mph - N/A Snow Light Snow
9:37 PM - - - N/A% 30.12 in 2.0 mi NNW 11.5 mph 16.1 mph N/A   Unknown
9:58 PM 32.4 °F 29.1 °F 32.5 °F 100% 30.13 in 2.5 mi NNW 3.5 mph - N/A Snow Light Snow
10:17 PM 32.0 °F 25.6 °F 32.2 °F 100% 30.14 in 1.8 mi NNW 6.9 mph - N/A Snow Light Snow
10:37 PM 32.0 °F 25.6 °F 32.2 °F 100% 30.14 in 2.0 mi NNW 6.9 mph - N/A Snow Light Snow
10:58 PM 32.0 °F 24.2 °F 32.0 °F 100% 30.15 in 2.5 mi North 9.2 mph - N/A Snow Light Snow
11:17 PM 32.0 °F 27.5 °F 32.0 °F 100% 30.15 in 2.0 mi North 4.6 mph - N/A   Overcast
11:37 PM 31.8 °F 25.4 °F 32.0 °F 100% 30.16 in 2.5 mi North 6.9 mph - N/A   Overcast
11:58 PM 31.1 °F 25.4 °F 31.5 °F 100% 30.17 in 2.0 mi North 5.8 mph - N/A   Overcast